GW3448 Weather Reports


Display with metric or nautical units.
time (UTC)temp
F
wind
direction
speed
MPH
gust
MPH
rain 1hr
in
rain 24hr
in
rain mn
in
humidity
%
barometer
mb
20231209115804 30 126 0.0 0.0 0.00 0.00 0.00 93 1031.5
20231209115306 30 126 0.0 0.0 0.00 0.00 0.00 93 1031.6
20231209114804 30 126 0.0 0.0 0.00 0.00 0.00 93 1031.6
20231209114304 30 126 0.0 0.0 0.00 0.00 0.00 92 1031.6
20231209113805 30 126 0.0 0.0 0.00 0.00 0.00 92 1031.6
20231209113305 30 126 0.0 0.0 0.00 0.00 0.00 93 1031.6
20231209112806 30 126 0.0 0.0 0.00 0.00 0.00 92 1031.6
20231209111805 30 126 0.0 0.0 0.00 0.00 0.00 92 1031.6
20231209111304 30 126 0.0 0.0 0.00 0.00 0.00 92 1031.7
20231209110805 30 126 0.0 0.0 0.00 0.00 0.00 92 1031.8
20231209110304 30 126 0.0 0.0 0.00 0.00 0.00 91 1031.6
20231209105805 31 126 0.0 0.0 0.00 0.00 0.00 91 1031.7
20231209105306 31 126 0.0 0.0 0.00 0.00 0.00 91 1031.7
20231209104804 31 126 0.0 0.0 0.00 0.00 0.00 91 1031.7
20231209104304 31 126 0.0 0.0 0.00 0.00 0.00 91 1031.8
20231209102804 32 126 0.0 0.0 0.00 0.00 0.00 90 1031.6
20231209101805 32 24 0.0 0.0 0.00 0.00 0.00 90 1031.6
20231209101305 32 24 0.0 0.0 0.00 0.00 0.00 90 1031.5
20231209100804 33 24 0.0 1.0 0.00 0.00 0.00 90 1031.4
20231209100304 33 254 0.0 1.0 0.00 0.00 0.00 89 1031.5
20231209095803 33 254 0.0 1.0 0.00 0.00 0.00 89 1031.3
20231209095305 33 254 0.0 2.0 0.00 0.00 0.00 90 1031.3
20231209094804 33 254 0.0 1.0 0.00 0.00 0.00 90 1031.3
20231209094304 33 254 1.0 0.0 0.00 0.00 0.00 90 1031.3
20231209093805 34 254 1.0 2.0 0.00 0.00 0.00 90 1031.3
20231209093304 33 258 1.0 3.0 0.00 0.00 0.00 90 1031.3
20231209092804 33 254 0.0 1.0 0.00 0.00 0.00 90 1031.3
20231209092306 33 254 1.0 2.0 0.00 0.00 0.00 89 1031.2
20231209091804 33 42 0.0 1.0 0.00 0.00 0.00 89 1031.3
20231209091305 33 42 0.0 2.0 0.00 0.00 0.00 88 1031.3
20231209090804 34 42 0.0 0.0 0.00 0.00 0.00 87 1031.2
20231209090304 34 42 0.0 0.0 0.00 0.00 0.00 87 1031.3
20231209085804 34 42 0.0 0.0 0.00 0.00 0.00 85 1031.4
20231209085305 34 42 0.0 0.0 0.00 0.00 0.00 85 1031.3
20231209084805 34 42 0.0 0.0 0.00 0.00 0.00 84 1031.4
20231209084304 35 42 0.0 0.0 0.00 0.00 0.00 84 1031.3
20231209083804 35 42 0.0 1.0 0.00 0.00 0.00 84 1031.3
20231209083306 35 42 0.0 1.0 0.00 0.00 0.00 83 1031.2
20231209082305 36 42 0.0 0.0 0.00 0.00 0.00 82 1031.3
20231209081804 36 42 0.0 0.0 0.00 0.00 0.00 81 1031.1
20231209081304 36 42 0.0 1.0 0.00 0.00 0.00 81 1031.1
20231209080816 37 98 1.0 1.0 0.00 0.00 0.00 80 1031.2
20231209080305 37 98 1.0 2.0 0.00 0.00 0.00 80 1031.3
20231209075804 37 135 0.0 2.0 0.00 0.00 0.00 80 1031.3
20231209075306 38 139 1.0 2.0 0.00 0.00 0.00 80 1031.3
20231209074804 38 170 2.0 5.0 0.00 0.00 0.00 80 1031.4
20231209074304 37 171 2.0 3.0 0.00 0.00 0.00 80 1031.4
20231209073805 37 167 1.0 3.0 0.00 0.00 0.00 81 1031.4
20231209073305 37 184 0.0 3.0 0.00 0.00 0.00 81 1031.4
20231209072804 37 109 1.0 2.0 0.00 0.00 0.00 81 1031.5
20231209072306 38 109 1.0 2.0 0.00 0.00 0.00 80 1031.5
20231209071803 38 172 1.0 2.0 0.00 0.00 0.00 79 1031.5
20231209071304 38 172 1.0 2.0 0.00 0.00 0.00 80 1031.5
20231209070804 38 201 0.0 2.0 0.00 0.00 0.00 79 1031.4
20231209070304 38 113 1.0 0.0 0.00 0.00 0.00 79 1031.5
20231209065305 39 143 2.0 3.0 0.00 0.00 0.00 78 1031.3
20231209064804 39 201 3.0 5.0 0.00 0.00 0.00 78 1031.4
20231209064304 39 176 3.0 6.0 0.00 0.00 0.00 79 1031.4
20231209063803 39 213 2.0 6.0 0.00 0.00 0.00 78 1031.2
20231209063304 39 206 2.0 7.0 0.00 0.00 0.00 79 1031.1
20231209062805 39 205 2.0 7.0 0.00 0.00 0.00 79 1031.1
20231209062305 39 204 2.0 3.0 0.00 0.00 0.00 79 1031.1
20231209061804 38 190 2.0 5.0 0.00 0.00 0.00 79 1030.9
20231209061304 38 173 3.0 5.0 0.00 0.00 0.00 80 1030.9
20231209060805 38 179 2.0 5.0 0.00 0.00 0.00 80 1030.9
20231209060304 38 204 2.0 3.0 0.00 0.00 0.00 81 1030.8
20231209055804 38 175 2.0 5.0 0.00 0.00 0.00 82 1030.7
20231209055305 37 174 2.0 5.0 0.00 0.00 0.00 83 1030.4
20231209053804 36 182 1.0 2.0 0.00 0.00 0.00 83 1030.4
20231209053304 36 182 0.0 2.0 0.00 0.00 0.00 83 1030.5
20231209052306 37 147 0.0 2.0 0.00 0.00 0.00 82 1030.4
20231209051306 37 147 1.0 1.0 0.00 0.00 0.00 82 1030.1
20231209050806 38 147 1.0 2.0 0.00 0.00 0.00 82 1030.2
20231209050306 38 147 0.0 2.0 0.00 0.00 0.00 82 1030.2
20231209045805 38 242 0.0 1.0 0.00 0.00 0.00 81 1030.0
20231209045307 38 242 1.0 2.0 0.00 0.00 0.00 81 1030.0
20231209044805 38 242 2.0 3.0 0.00 0.00 0.00 81 1029.8
20231209044305 38 263 2.0 3.0 0.00 0.00 0.00 81 1029.9
20231209043805 38 268 1.0 3.0 0.00 0.00 0.00 81 1029.9
20231209043305 38 268 1.0 3.0 0.00 0.00 0.00 80 1029.9
20231209041305 40 239 2.0 3.0 0.00 0.00 0.00 78 1029.9
20231209040306 40 238 3.0 9.0 0.00 0.00 0.00 79 1029.9
20231209035805 40 259 2.0 7.0 0.00 0.00 0.00 79 1029.8
20231209035306 39 264 2.0 3.0 0.00 0.00 0.00 79 1029.8
20231209034806 40 297 2.0 3.0 0.00 0.00 0.00 79 1029.9
20231209034305 40 333 2.0 5.0 0.00 0.00 0.00 79 1029.9
20231209033807 40 10 1.0 3.0 0.00 0.00 0.00 78 1029.7
20231209032806 40 181 1.0 3.0 0.00 0.00 0.00 78 1029.5
20231209031805 40 191 0.0 0.0 0.00 0.00 0.00 77 1029.3
20231209031307 41 191 0.0 0.0 0.00 0.00 0.00 77 1029.4
20231209030806 41 191 1.0 2.0 0.00 0.00 0.00 76 1029.4
20231209030306 41 191 1.0 2.0 0.00 0.00 0.00 76 1029.3
20231209025806 41 178 1.0 3.0 0.00 0.00 0.00 76 1029.2
20231209025306 42 186 2.0 3.0 0.00 0.00 0.00 76 1029.1
20231209024805 42 187 2.0 3.0 0.00 0.00 0.00 76 1029.0
20231209024305 42 204 2.0 3.0 0.00 0.00 0.00 76 1029.1
20231209023806 42 211 2.0 2.0 0.00 0.00 0.00 76 1029.0
20231209022805 42 196 2.0 5.0 0.00 0.00 0.00 76 1029.0
20231209021805 42 184 2.0 3.0 0.00 0.00 0.00 75 1029.0
20231209021306 42 206 2.0 5.0 0.00 0.00 0.00 75 1028.9
20231209020805 42 186 2.0 3.0 0.00 0.00 0.00 75 1028.9
20231209020305 42 188 2.0 5.0 0.00 0.00 0.00 74 1028.8
20231209015805 42 193 2.0 5.0 0.00 0.00 0.00 74 1028.9
20231209015306 42 204 3.0 5.0 0.00 0.00 0.00 74 1028.9
20231209014805 42 203 2.0 3.0 0.00 0.00 0.00 73 1028.9
20231209013805 42 218 1.0 3.0 0.00 0.00 0.00 73 1028.6
20231209013306 42 199 1.0 3.0 0.00 0.00 0.00 72 1028.6
20231209012805 42 195 1.0 3.0 0.00 0.00 0.00 72 1028.6
20231209012306 42 194 1.0 3.0 0.00 0.00 0.00 72 1028.5
20231209011806 42 188 1.0 3.0 0.00 0.00 0.00 72 1028.6
20231209011305 42 202 1.0 2.0 0.00 0.00 0.00 71 1028.4
20231209010805 42 198 2.0 3.0 0.00 0.00 0.00 71 1028.3
20231209010307 43 202 1.0 2.0 0.00 0.00 0.00 71 1028.2
20231209005806 43 196 1.0 3.0 0.00 0.00 0.00 71 1028.2
20231209005306 43 196 1.0 3.0 0.00 0.00 0.00 70 1028.1
20231209004806 44 207 2.0 3.0 0.00 0.00 0.00 70 1028.2
20231209004305 44 205 2.0 3.0 0.00 0.00 0.00 69 1028.0
20231209003305 44 197 2.0 3.0 0.00 0.00 0.00 68 1027.6
20231209002806 45 200 2.0 3.0 0.00 0.00 0.00 68 1027.5
20231209002305 45 210 1.0 3.0 0.00 0.00 0.00 68 1027.4
20231209001806 45 190 2.0 3.0 0.00 0.00 0.00 67 1027.3
20231209001305 46 188 2.0 3.0 0.00 0.00 0.00 67 1027.2
20231209000804 46 192 1.0 3.0 0.00 0.00 0.00 66 1027.2
20231208235306 47 175 2.0 3.0 0.00 0.00 0.00 65 1027.0
20231208234805 48 184 2.0 3.0 0.00 0.00 0.00 64 1027.0
20231208233805 48 173 2.0 3.0 0.00 0.00 0.00 63 1026.8
20231208233306 48 189 3.0 5.0 0.00 0.00 0.00 63 1026.7
20231208232805 49 188 3.0 6.0 0.00 0.00 0.00 63 1026.7
20231208232306 49 196 2.0 6.0 0.00 0.00 0.00 63 1026.7
20231208231805 49 196 2.0 6.0 0.00 0.00 0.00 62 1026.8
20231208231306 49 240 2.0 3.0 0.00 0.00 0.00 62 1026.6
20231208230806 49 244 2.0 7.0 0.00 0.00 0.00 61 1026.5
20231208230306 49 219 3.0 6.0 0.00 0.00 0.00 61 1026.4
20231208225806 49 222 3.0 5.0 0.00 0.00 0.00 60 1026.3
20231208224805 49 201 3.0 6.0 0.00 0.00 0.00 58 1026.1
20231208224305 50 211 3.0 6.0 0.00 0.00 0.00 58 1026.0
20231208223305 50 208 2.0 5.0 0.00 0.00 0.00 58 1026.0
20231208222806 50 212 2.0 6.0 0.00 0.00 0.00 58 1026.0
20231208221804 51 209 2.0 7.0 0.00 0.00 0.00 58 1025.7
20231208221306 51 213 2.0 7.0 0.00 0.00 0.00 58 1025.7
20231208220305 50 216 3.0 7.0 0.00 0.00 0.00 58 1025.6
20231208215305 50 256 3.0 9.0 0.00 0.00 0.00 58 1025.6
20231208214805 51 244 3.0 8.0 0.00 0.00 0.00 58 1025.5
20231208213805 50 204 3.0 6.0 0.00 0.00 0.00 61 1025.6
20231208212805 50 237 3.0 6.0 0.00 0.00 0.00 59 1025.5
20231208212305 50 232 3.0 9.0 0.00 0.00 0.00 60 1025.4
20231208211805 50 213 3.0 8.0 0.00 0.00 0.00 61 1025.3
20231208211305 50 193 3.0 7.0 0.00 0.00 0.00 61 1025.4
20231208210807 50 220 3.0 12.0 0.00 0.00 0.00 60 1025.3
20231208210304 50 221 3.0 5.0 0.00 0.00 0.00 61 1025.3
20231208205805 50 193 3.0 7.0 0.00 0.00 0.00 59 1025.3
20231208205305 50 213 3.0 6.0 0.00 0.00 0.00 59 1025.3
20231208204805 50 216 3.0 8.0 0.00 0.00 0.00 61 1025.2
20231208204304 50 191 3.0 7.0 0.00 0.00 0.00 63 1025.2
20231208203805 49 190 3.0 9.0 0.00 0.00 0.00 65 1025.2
20231208203305 49 213 4.0 9.0 0.00 0.00 0.00 66 1025.2
20231208202805 49 212 3.0 9.0 0.00 0.00 0.00 65 1025.2
20231208202306 49 201 3.0 12.0 0.00 0.00 0.00 65 1025.2
20231208201806 49 222 3.0 7.0 0.00 0.00 0.00 65 1025.1
20231208201306 49 168 3.0 9.0 0.00 0.00 0.00 65 1025.2
20231208200806 49 223 3.0 9.0 0.00 0.00 0.00 66 1025.2
20231208200304 49 197 3.0 9.0 0.00 0.00 0.00 66 1025.2
20231208195805 49 201 3.0 7.0 0.00 0.00 0.00 65 1025.2
20231208195305 49 200 3.0 7.0 0.00 0.00 0.00 66 1025.1
20231208194804 48 241 3.0 6.0 0.00 0.00 0.00 67 1025.2
20231208194305 48 231 3.0 7.0 0.00 0.00 0.00 68 1025.2
20231208193805 48 216 3.0 8.0 0.00 0.00 0.00 67 1025.1
20231208193304 48 231 3.0 10.0 0.00 0.00 0.00 67 1025.0
20231208192805 48 216 3.0 8.0 0.00 0.00 0.00 68 1025.0
20231208192306 48 231 3.0 7.0 0.00 0.00 0.00 69 1025.0
20231208191806 47 217 3.0 9.0 0.00 0.00 0.00 69 1024.9
20231208191305 47 187 3.0 9.0 0.00 0.00 0.00 69 1024.9
20231208190805 47 223 3.0 8.0 0.00 0.00 0.00 70 1024.9
20231208190305 47 239 3.0 6.0 0.00 0.00 0.00 72 1025.0
20231208185306 46 223 5.0 13.0 0.00 0.00 0.00 72 1024.9
20231208184804 46 230 5.0 12.0 0.00 0.00 0.00 74 1024.7
20231208184305 46 214 6.0 12.0 0.00 0.00 0.00 74 1024.7
20231208183805 46 214 5.0 12.0 0.00 0.00 0.00 74 1024.6
20231208183305 46 212 5.0 9.0 0.00 0.00 0.00 75 1024.7
20231208182804 45 230 6.0 9.0 0.00 0.00 0.00 76 1024.5
20231208182306 45 240 6.0 15.0 0.00 0.00 0.00 75 1024.6
20231208181805 45 219 5.0 14.0 0.00 0.00 0.00 76 1024.4
20231208180804 45 209 5.0 12.0 0.00 0.00 0.00 77 1024.4
20231208180305 45 218 5.0 12.0 0.00 0.00 0.00 77 1024.5
20231208175305 44 201 5.0 12.0 0.00 0.00 0.00 77 1024.3
20231208174804 44 213 5.0 12.0 0.00 0.00 0.00 76 1024.1
20231208174305 44 190 5.0 10.0 0.00 0.00 0.00 77 1024.1
20231208173304 43 208 5.0 8.0 0.00 0.00 0.00 79 1023.9
20231208172306 43 201 4.0 10.0 0.00 0.00 0.00 79 1023.6
20231208171805 43 206 3.0 8.0 0.00 0.00 0.00 79 1023.4
20231208171304 42 218 3.0 7.0 0.00 0.00 0.00 79 1023.4
20231208170805 42 205 3.0 9.0 0.00 0.00 0.00 79 1023.2
20231208170304 42 216 3.0 10.0 0.00 0.00 0.00 79 1023.3
20231208165805 42 221 5.0 12.0 0.00 0.00 0.00 80 1023.1
20231208164805 42 219 5.0 10.0 0.00 0.00 0.00 80 1022.9
20231208164304 42 200 5.0 10.0 0.00 0.00 0.00 80 1022.8
20231208163806 41 231 5.0 12.0 0.00 0.00 0.00 81 1022.7
20231208162805 41 216 3.0 10.0 0.00 0.00 0.00 82 1022.5
20231208161805 40 237 5.0 10.0 0.00 0.00 0.00 83 1022.3
20231208160806 40 235 5.0 10.0 0.00 0.00 0.00 83 1022.3
20231208160304 40 213 5.0 10.0 0.00 0.00 0.00 83 1022.2
20231208155805 40 205 3.0 12.0 0.00 0.00 0.00 83 1022.1
20231208155306 39 222 3.0 8.0 0.00 0.00 0.00 84 1022.0
20231208154804 39 216 3.0 7.0 0.00 0.00 0.00 84 1021.9
20231208153804 39 215 3.0 6.0 0.00 0.00 0.00 83 1021.7
20231208153305 39 222 3.0 10.0 0.00 0.00 0.00 83 1021.7
20231208152804 39 236 3.0 9.0 0.00 0.00 0.00 84 1021.7
20231208152306 39 239 3.0 9.0 0.00 0.00 0.00 84 1021.6
20231208151804 39 239 3.0 7.0 0.00 0.00 0.00 84 1021.5
20231208151304 39 231 3.0 9.0 0.00 0.00 0.00 84 1021.4
20231208150805 39 237 3.0 7.0 0.00 0.00 0.00 84 1021.3
20231208150305 39 221 5.0 7.0 0.00 0.00 0.00 84 1021.2
20231208145805 40 227 5.0 10.0 0.00 0.00 0.00 84 1021.1
20231208145306 40 236 3.0 12.0 0.00 0.00 0.00 84 1021.1
20231208144804 40 220 4.0 7.0 0.00 0.00 0.00 84 1021.2
20231208144304 40 222 5.0 14.0 0.00 0.00 0.00 84 1021.2
20231208143805 40 231 5.0 14.0 0.00 0.00 0.00 84 1021.1
20231208143305 40 226 4.0 12.0 0.00 0.00 0.00 84 1021.1
20231208142805 40 213 5.0 10.0 0.00 0.00 0.00 84 1021.1
20231208141805 40 232 5.0 12.0 0.00 0.00 0.00 84 1020.9
20231208141304 40 211 5.0 13.0 0.00 0.00 0.00 83 1020.9
20231208140805 40 207 6.0 13.0 0.00 0.00 0.00 83 1020.8
20231208140304 40 212 5.0 12.0 0.00 0.00 0.00 83 1020.6
20231208135804 40 203 6.0 10.0 0.00 0.00 0.00 83 1020.5
20231208134306 40 236 6.0 12.0 0.00 0.00 0.00 83 1020.2
20231208133805 40 203 5.0 12.0 0.00 0.00 0.00 83 1020.1
20231208132805 40 202 6.0 9.0 0.00 0.00 0.00 82 1019.8
20231208132305 40 221 6.0 13.0 0.00 0.00 0.00 82 1019.8
20231208131304 40 213 6.0 12.0 0.00 0.00 0.00 83 1019.5
20231208130304 41 209 6.0 10.0 0.00 0.00 0.00 82 1019.3
20231208125804 41 208 6.0 12.0 0.00 0.00 0.00 82 1019.3
20231208125306 41 231 6.0 18.0 0.00 0.00 0.00 81 1019.0
20231208124805 41 221 6.0 9.0 0.00 0.00 0.00 81 1018.9
20231208124304 41 203 6.0 12.0 0.00 0.00 0.00 81 1018.9
20231208123304 40 223 6.0 12.0 0.00 0.00 0.00 81 1018.9
20231208122805 40 230 6.0 12.0 0.00 0.00 0.00 81 1018.8
20231208122305 40 224 6.0 15.0 0.00 0.00 0.00 81 1018.7
20231208121804 41 224 6.0 9.0 0.00 0.00 0.00 81 1018.6
20231208121304 41 215 7.0 17.0 0.00 0.00 0.00 81 1018.6